Location: Unspecified
(0.0000°N, 0.0000°E)
Time: 07:02:17
(UTC+00:00)

STARLINK-1041 - Pass Details

Date: 12 December 2019
Orbit: 548 x 551 km, 53.0° (Epoch: 11 July)

Event Time Altitude Azimuth Distance (km) Brightness Sun altitude
Rises 19:29:08 0° 206° (SSW) 2,672 7.9 -21.8°
Reaches altitude 10° 19:31:24 10° 201° (SSW) 1,779 6.8 -22.3°
Enters shadow 19:34:41 46° 160° (SSE) 715 4.1 -23.1°
